Wind_Speed
8 8 9 10 10 10 10 10 10 9 9 7 6 5 5 6 7 8 8 9 10 11 11 11 11 10 10 9 8 7 8 8 9 9 9 10 9 9 9 10 11 11 12 13 12 12 12 12 12 13 13 14 14 14 14 14 14 14 13 13 14 14 14 14 14 14 14 14 14 14 14 13 13 13 13 13 12 12 12 12 12 12 12 12 12
9 7 7 7 8 8 9 9 9 9 9 8 7 6 6 6 6 7 8 9 10 11 12 12 11 10 9 9 8 7 7 7 8 8 9 9 10 9 9 10 11 11 12 12 12 11 11 11 11 12 13 13 14 14 14 14 14 14 13 13 13 13 13 13 13 13 13 14 14 14 13 13 12 12 12 12 12 12 12 12 11 11 11 12 12
11 9 7 6 6 6 7 7 7 7 7 7 7 6 5 5 6 6 7 8 9 10 12 13 13 12 10 9 9 8 8 7 7 7 8 9 9 9 9 10 11 11 12 12 11 11 11 11 11 12 12 13 13 14 14 13 13 13 12 12 12 12 12 12 12 13 13 13 13 13 12 12 12 12 12 12 12 12 12 12 11 11 11 11 11
12 11 10 8 7 5 5 5 5 6 6 6 6 5 5 5 5 5 6 7 8 9 10 12 13 14 12 10 9 9 8 8 7 7 7 7 7 8 8 9 10 10 11 11 10 10 11 12 12 12 11 12 12 12 13 12 12 12 12 11 11 11 10 11 11 12 12 12 12 12 11 11 11 12 12 13 13 13 13 12 12 11 11 11 11
11 11 11 10 9 7 6 4 3 3 4 4 4 4 4 4 4 4 4 5 6 7 8 9 11 13 14 13 11 10 9 8 7 7 6 5 6 6 6 7 8 9 10 10 10 11 11 11 12 12 12 11 11 12 12 12 12 11 11 11 11 10 10 10 11 11 11 11 11 11 11 11 11 11 12 13 14 14 13 13 13 12 12 11 11
9 10 10 10 10 9 8 7 5 3 3 2 3 3 3 2 3 3 3 4 4 5 5 6 8 10 13 14 14 13 11 10 9 8 7 6 6 6 6 6 7 8 8 9 10 10 10 10 11 12 11 11 11 11 12 12 12 11 11 11 11 10 10 10 10 10 10 10 10 10 11 11 11 12 13 13 13 14 14 14 14 14 13 13 13
7 8 8 9 9 9 9 8 7 6 4 3 2 1 1 1 1 1 2 2 3 3 4 4 5 6 9 11 14 15 14 13 11 9 9 8 8 8 7 7 7 7 8 9 9 9 9 9 10 11 11 11 12 12 12 12 12 12 12 12 12 11 11 11 10 10 10 10 11 11 12 12 12 13 13 13 13 14 15 15 15 15 15 14 14
5 6 6 6 7 7 7 7 7 7 6 5 3 2 1 1 1 1 0 0 1 2 2 3 3 4 5 7 10 13 15 15 14 13 12 12 11 10 9 9 9 9 9 9 9 9 9 10 10 10 11 11 12 12 12 12 12 12 12 13 13 13 12 12 12 11 12 12 12 12 12 13 13 14 14 14 14 15 16 16 16 16 16 15 15
3 3 4 4 5 5 6 6 6 6 6 6 5 4 2 2 2 2 2 2 1 1 2 2 3 4 5 5 7 9 11 14 15 16 15 15 14 14 13 12 11 11 11 11 10 10 10 11 11 11 11 12 12 12 13 13 13 13 13 13 13 13 13 13 13 13 13 13 13 14 14 14 15 15 15 15 16 16 17 17 17 17 17 16 16
2 2 3 3 4 4 4 5 5 5 5 5 5 5 4 3 2 3 3 4 3 3 3 3 3 4 5 5 6 7 8 10 12 14 15 16 16 16 16 15 14 14 14 13 12 12 11 12 12 11 12 12 13 13 13 13 13 13 14 14 14 14 14 14 14 14 14 14 14 15 15 15 16 16 16 17 17 18 18 18 18 18 18 18 18
4 3 3 3 3 4 4 4 5 5 5 5 5 5 5 4 4 4 3 4 4 5 5 5 5 5 5 6 7 7 8 9 10 11 12 14 15 16 16 16 16 17 16 16 15 14 13 13 13 13 13 13 14 14 15 15 14 14 15 15 15 15 15 15 15 15 15 15 15 15 16 16 16 16 17 17 18 18 19 19 19 19 19 19 19
6 5 4 4 4 4 4 5 5 5 6 6 6 6 6 6 5 5 5 5 5 5 6 6 6 6 6 6 7 8 9 9 10 10 11 12 13 14 15 15 16 16 17 17 17 16 15 15 15 14 14 15 15 15 16 16 16 16 16 16 16 16 16 16 16 16 16 16 17 17 17 17 17 17 17 17 18 19 19 19 20 20 20 20 20
8 7 5 4 4 4 4 5 5 5 6 6 6 7 7 7 6 6 6 6 6 6 6 6 6 7 8 8 8 9 9 10 10 11 11 12 13 13 14 14 15 15 16 16 17 17 17 17 17 16 16 16 16 16 17 17 17 17 17 17 17 17 17 17 17 17 17 18 18 18 18 18 18 18 18 18 19 19 20 20 20 20 20 21 21
9 8 7 5 4 4 4 4 5 5 6 6 7 7 8 8 8 8 7 7 7 7 7 6 6 6 7 8 9 10 11 11 11 11 12 13 13 14 14 14 15 15 16 16 17 17 17 17 18 18 17 17 17 17 18 18 18 18 18 18 18 18 18 18 18 18 18 19 19 19 19 19 19 19 19 19 20 20 20 21 21 21 21 21 22
7 7 8 6 4 4 4 4 4 5 5 6 7 7 8 8 9 9 9 9 9 9 8 8 8 7 7 8 8 10 11 12 12 13 13 13 14 14 15 15 16 16 16 16 16 17 17 17 18 18 18 18 18 18 19 19 19 19 19 19 19 19 19 20 20 20 20 20 20 20 20 21 21 21 21 21 21 21 21 22 22 22 22 22 22
4 5 6 6 5 4 3 4 4 4 5 6 6 7 8 9 9 9 9 10 10 10 10 10 10 9 9 9 9 9 10 11 11 13 14 14 15 15 16 16 16 16 17 17 17 17 18 18 18 19 19 19 19 19 19 19 20 20 20 20 20 20 20 20 21 21 21 21 21 21 22 22 22 22 22 22 22 22 23 23 23 23 23 23 23
5 4 5 5 5 4 3 3 4 4 5 5 6 7 8 9 10 10 11 11 11 12 12 12 12 12 12 12 11 11 11 11 11 12 13 14 15 16 17 17 17 18 18 17 17 18 18 19 19 19 20 20 20 20 20 20 20 21 21 21 21 21 21 21 22 22 22 22 22 22 23 23 23 23 24 24 24 24 24 24 24 24 24 24 24
8 7 6 6 5 5 4 4 4 5 5 5 6 7 8 8 9 10 11 12 12 13 13 14 14 14 14 14 14 14 14 14 13 13 13 14 14 15 16 18 18 19 20 19 19 19 19 20 20 20 21 21 21 21 21 22 22 22 22 22 22 23 23 23 23 23 23 23 24 24 24 24 24 24 25 25 25 25 25 25 26 26 26 26 25
9 10 10 9 8 7 6 6 6 6 7 7 7 8 8 9 9 10 11 12 13 14 15 15 16 16 16 16 16 16 16 16 16 16 15 15 15 16 16 17 18 19 20 20 20 21 21 22 22 22 22 22 22 22 23 23 23 23 23 24 24 24 24 24 24 24 24 25 25 25 25 26 26 26 26 26 26 26 26 26 26 27 27 27 27
9 11 12 12 12 10 9 9 9 9 9 9 9 9 9 10 10 10 11 13 13 15 16 17 17 18 18 18 18 18 18 18 18 18 18 18 18 18 18 18 18 19 20 20 20 21 21 22 23 24 24 24 24 24 24 24 24 24 24 25 25 25 25 25 25 25 25 25 25 25 26 26 26 26 27 27 27 27 27 27 27 27 27 27 27
9 10 12 13 14 13 13 12 12 12 12 12 12 11 11 11 11 11 12 13 14 14 16 17 18 19 20 20 21 20 21 21 21 21 21 21 21 20 20 20 21 21 21 21 21 21 21 21 22 23 24 25 25 26 26 27 27 27 27 27 27 26 26 26 26 26 26 26 26 26 26 27 27 27 27 28 28 28 28 28 27 28 28 28 28
10 10 11 13 14 14 15 15 15 15 15 15 15 14 14 14 14 14 14 14 14 15 15 16 17 18 20 21 22 22 23 23 23 24 24 23 23 23 23 22 23 23 24 24 24 23 22 22 22 23 23 24 24 25 25 26 27 27 28 28 29 29 29 29 29 29 29 29 29 29 29 29 29 29 29 29 29 29 29 29 29 29 29 29 29
12 11 12 12 13 15 15 16 16 17 17 17 17 17 17 16 16 16 16 16 16 17 17 17 17 18 19 19 20 21 23 23 25 26 26 26 26 26 25 25 25 26 27 27 27 26 25 25 24 25 25 25 25 25 25 25 26 26 27 27 28 28 29 29 30 30 31 31 31 31 31 31 31 31 31 31 31 31 31 31 31 31 30 30 30
12 12 12 13 13 14 15 16 16 17 17 18 18 18 18 18 18 19 19 19 19 19 19 19 19 19 20 20 20 20 21 22 23 25 26 27 28 28 28 28 27 27 28 29 30 30 29 28 27 27 28 28 27 27 27 27 27 27 27 27 28 28 28 28 29 29 30 30 31 31 31 32 32 32 32 32 32 32 32 32 32 32 32 32 32
12 12 12 13 13 13 14 15 16 16 17 17 18 18 18 18 18 19 20 21 21 21 21 22 22 22 22 22 22 22 22 22 23 23 25 26 27 27 28 29 29 29 30 31 32 32 32 31 30 30 31 31 31 30 30 30 30 30 30 30 29 29 29 29 29 29 29 30 30 30 30 31 31 31 31 32 32 32 32 32 32 33 33 33 34
12 12 12 12 13 13 14 14 15 16 16 16 16 17 17 17 17 18 19 20 20 21 22 23 23 24 24 24 24 24 24 25 25 25 25 25 26 27 27 28 28 29 30 31 33 33 33 34 33 33 33 33 34 34 33 33 33 33 33 33 33 32 32 32 32 32 31 31 31 31 31 31 31 31 31 31 31 32 32 32 32 32 32 33 34
13 13 12 13 13 13 13 14 15 16 16 16 16 16 16 16 17 18 19 19 19 20 20 21 22 24 25 25 26 26 26 27 27 28 28 28 28 28 28 28 29 29 29 30 32 33 34 35 35 34 35 35 36 36 36 36 36 36 36 36 36 36 35 35 35 35 34 34 34 34 33 33 33 33 33 33 33 32 33 33 33 33 33 33 33
13 13 13 13 13 13 13 13 14 15 15 16 16 16 16 16 17 17 18 19 19 20 20 20 22 23 24 25 26 27 28 28 29 29 30 30 30 31 31 31 31 31 30 31 31 32 33 34 34 35 36 36 37 37 38 38 39 39 39 39 39 39 38 38 38 38 38 38 37 37 37 36 36 36 35 35 35 35 35 34 34 34 34 34 34
14 14 14 13 13 14 14 13 14 14 15 16 16 16 17 17 18 18 19 19 20 20 21 21 22 23 23 24 25 27 27 28 29 30 31 31 32 32 32 33 33 34 34 34 33 34 34 34 33 33 35 36 36 38 39 39 40 40 41 41 41 41 41 41 41 41 41 41 41 41 41 40 40 40 39 39 38 38 38 38 37 37 37 36 36
15 14 14 14 14 14 14 15 15 15 16 16 16 17 17 18 19 19 19 20 21 21 22 22 23 24 23 24 26 27 27 28 29 31 31 32 33 33 34 34 34 35 37 37 36 37 37 36 35 34 35 35 35 36 37 38 40 41 41 42 42 43 43 43 43 43 43 43 43 43 43 43 43 43 43 43 42 42 42 41 41 40 40 39 39
15 14 14 13 13 13 14 15 15 16 16 16 16 16 17 18 18 19 20 21 21 22 23 23 24 25 25 25 28 28 28 29 30 31 32 33 34 34 34 35 36 38 39 39 39 40 40 39 38 38 37 37 36 37 38 38 38 39 41 42 42 43 44 44 44 45 45 45 45 45 45 45 45 45 45 45 45 45 45 44 44 44 43 42 42
15 14 13 13 12 12 13 14 14 14 15 15 15 15 16 16 17 18 19 20 21 21 22 23 25 25 25 26 28 30 30 31 32 32 33 34 35 35 35 35 37 40 41 41 41 42 43 43 42 41 39 39 39 40 41 40 40 40 40 41 42 43 43 44 44 45 45 45 46 46 46 46 46 46 46 46 46 46 46 46 46 46 45 45 44
14 14 13 12 12 12 12 13 13 13 14 14 15 15 15 16 17 18 19 20 21 21 23 24 24 25 26 26 28 30 31 32 34 34 34 36 38 37 37 37 39 41 42 42 42 43 45 46 46 45 43 42 43 43 43 43 43 43 42 42 43 43 43 43 44 45 45 46 46 47 47 47 47 47 46 46 46 45 45 45 46 46 46 46 46
13 13 12 12 12 12 13 13 14 15 15 16 16 17 17 18 19 20 21 22 22 23 24 25 26 27 27 28 28 30 32 33 35 36 36 38 39 40 40 40 40 42 44 44 44 44 46 48 49 49 47 46 46 46 46 46 46 46 45 45 45 45 45 45 45 45 46 47 48 48 48 48 48 48 48 47 47 46 46 45 45 46 46 46 46
13 13 12 12 13 14 14 15 16 17 18 19 20 20 21 22 23 23 24 25 25 26 27 28 28 29 31 31 32 32 33 35 36 38 38 39 41 42 42 43 43 44 45 46 47 47 48 49 50 50 50 50 49 49 49 48 48 48 48 48 48 48 48 48 48 48 48 48 49 49 50 50 50 50 50 50 49 49 48 47 47 46 46 46 46
14 14 14 14 14 15 16 17 18 19 20 21 22 23 24 25 26 27 27 28 29 30 30 31 32 33 34 34 35 36 36 37 39 40 41 41 43 44 44 45 46 47 47 48 49 51 51 51 51 51 52 52 52 52 52 51 51 51 51 51 51 51 51 51 51 51 51 50 50 50 50 51 51 52 52 52 52 51 51 50 50 49 48 47 47
15 15 16 16 17 18 19 20 21 22 23 23 24 25 26 27 28 29 30 31 32 32 33 34 35 35 36 37 38 38 39 40 41 42 44 44 45 46 47 48 49 49 50 50 51 53 54 54 54 54 54 54 55 55 55 54 54 54 54 54 53 53 53 53 53 53 53 53 52 52 52 52 52 53 54 54 54 54 54 53 53 52 52 50 49
16 17 17 18 19 20 21 22 23 24 25 25 26 27 28 29 30 31 32 33 33 34 36 37 37 38 39 40 41 41 42 43 44 45 47 48 48 49 50 51 51 52 53 54 55 55 56 56 56 56 56 57 57 57 57 57 57 56 56 56 56 55 56 56 56 55 55 55 55 54 54 54 54 54 55 55 56 56 56 56 56 55 55 54 53
17 19 20 20 21 22 23 24 25 26 27 28 29 29 30 31 32 33 34 34 35 36 37 39 39 40 41 41 42 43 44 45 46 48 49 50 51 52 53 54 54 55 55 56 57 58 58 59 59 58 57 59 59 59 59 59 59 59 59 58 58 58 58 58 58 57 57 57 57 56 56 56 56 56 56 57 57 57 57 57 58 57 57 57 56
20 21 22 23 24 25 26 27 28 28 29 30 31 32 32 33 34 35 35 36 37 38 39 40 41 41 42 43 43 44 45 46 47 48 49 51 52 54 55 56 57 57 57 58 59 59 60 60 61 60 59 59 60 61 61 60 60 60 60 60 60 60 60 60 60 60 59 59 59 59 58 58 58 58 58 58 59 59 59 59 59 59 58 58 58
22 24 25 25 26 27 28 29 30 30 31 32 32 33 34 35 35 36 37 38 39 40 41 42 43 44 44 45 46 46 47 48 49 49 50 51 53 54 56 57 58 59 59 59 60 60 61 61 62 62 61 61 61 62 62 62 62 62 62 62 61 61 61 61 61 62 61 61 60 60 60 59 59 59 59 59 59 60 60 60 59 59 59 59 59
26 27 28 28 29 29 31 31 32 32 33 34 34 35 36 37 38 39 39 40 42 43 44 45 46 46 47 48 48 49 50 50 51 51 52 53 54 55 56 58 59 60 61 61 61 61 61 61 62 62 62 62 62 63 63 63 63 63 63 63 63 63 63 62 63 63 62 63 63 62 61 61 60 59 59 59 60 60 60 60 60 60 60 60 60
28 29 30 30 31 32 33 34 34 34 35 35 36 38 38 39 40 41 42 43 44 45 47 47 48 49 49 50 50 51 51 52 53 53 54 54 54 55 57 58 59 60 61 61 61 61 62 62 62 63 63 63 63 64 64 64 64 64 63 63 63 63 63 63 63 63 63 63 63 63 62 62 61 60 60 60 60 61 61 61 61 61 61 61 61
30 31 32 32 33 34 35 36 36 37 37 38 39 40 41 41 42 43 44 45 47 48 49 49 50 51 51 51 51 52 52 53 53 53 53 53 54 55 57 58 60 61 62 62 62 62 62 62 63 63 64 64 64 65 65 65 65 65 64 64 64 64 63 63 63 63 64 64 63 63 62 62 62 61 61 60 60 61 61 62 62 62 62 62 62
32 33 34 34 35 36 37 38 38 39 40 41 42 42 43 44 45 46 47 48 49 50 51 52 52 52 52 52 52 53 53 53 53 53 53 53 54 55 57 59 61 62 63 64 64 64 64 63 63 64 64 65 66 66 66 67 67 67 66 65 65 64 64 64 63 63 63 63 64 64 64 63 62 62 61 61 60 60 60 61 61 62 62 62 62
34 35 36 36 38 38 39 40 41 42 42 43 44 45 46 46 47 48 49 50 51 52 52 53 53 53 53 54 54 54 54 54 54 53 53 53 54 55 57 59 61 63 64 65 65 66 66 66 65 65 66 66 67 67 68 68 69 69 69 68 67 66 65 65 64 64 62 62 63 64 64 64 64 64 63 62 62 61 61 61 61 61 61 61 61
36 37 38 39 40 40 41 42 43 44 45 46 47 48 49 49 50 50 51 52 53 53 54 54 54 55 55 56 56 56 56 56 55 55 55 55 55 56 58 59 62 63 65 66 67 67 68 68 68 68 68 68 69 69 70 70 71 71 71 71 70 70 69 68 67 67 65 63 62 63 64 64 64 64 64 64 64 64 64 63 63 63 63 63 62
39 40 41 41 42 43 43 44 45 46 47 48 49 50 51 51 52 52 53 54 55 55 55 55 56 56 57 58 59 59 59 58 58 58 58 58 58 58 59 60 62 64 66 68 69 70 70 70 71 71 71 71 71 71 72 72 73 73 74 74 74 73 73 73 72 71 71 68 66 64 63 64 64 64 64 64 64 65 65 65 65 66 65 65 65
41 43 44 44 44 45 46 47 48 48 49 50 51 51 52 52 52 53 54 55 55 56 56 57 58 59 60 61 62 62 62 62 62 62 61 61 61 61 61 62 64 65 67 69 70 72 73 73 73 73 73 73 73 74 74 75 75 76 76 77 77 77 77 77 76 76 75 75 73 70 68 66 65 65 66 66 65 65 65 65 66 66 67 67 67
44 46 46 47 47 48 49 50 50 51 51 51 52 52 52 52 52 53 53 54 55 56 58 59 60 62 63 64 65 65 66 66 66 66 65 64 64 64 64 65 66 67 68 70 72 73 75 76 76 77 76 76 76 76 76 76 77 78 78 79 79 79 80 80 79 79 78 78 77 76 75 73 71 69 69 69 69 69 68 68 68 68 68 68 68
46 47 48 49 50 50 51 51 52 52 52 52 52 52 52 52 52 52 53 54 56 57 59 61 62 64 65 66 67 68 68 69 69 69 68 68 68 68 68 68 68 69 70 71 73 74 76 77 79 80 80 80 80 79 79 79 79 79 80 80 81 81 81 81 81 81 81 80 80 79 78 78 77 75 74 74 73 73 73 72 72 72 71 71 71
Wind_Direction
71 74 77 77 78 79 82 87 94 101 107 114 124 142 164 189 205 215 218 218 217 214 214 214 214 214 217 223 228 235 240 241 242 244 249 254 258 260 261 261 262 264 267 268 270 271 272 274 274 273 270 268 266 266 266 267 268 268 267 266 265 264 262 261 260 259 259 259 259 258 257 255 254 254 254 253 253 253 253 253 253 252 250 250 249
65 68 74 77 77 79 80 83 89 95 102 110 118 128 141 159 177 197 209 217 220 218 217 217 217 216 213 213 214 216 221 228 234 239 243 247 251 254 256 258 260 263 266 269 272 275 277 278 276 273 271 268 266 266 267 269 271 272 272 269 266 263 260 258 257 257 257 257 257 256 256 254 252 251 250 250 249 250 250 249 249 249 247 245 244
62 62 65 70 74 76 76 79 84 91 97 105 111 118 127 141 154 172 191 204 214 218 220 221 223 223 218 214 212 213 215 219 226 233 237 241 245 248 250 254 257 260 263 265 269 274 276 275 272 271 271 270 268 268 268 269 270 271 271 269 267 264 260 256 253 252 253 254 255 256 255 253 251 249 247 245 243 243 244 245 245 244 243 240 239
60 60 59 60 63 68 71 70 74 80 88 96 103 107 113 123 138 156 173 188 201 211 218 222 225 227 225 222 221 221 223 224 225 227 229 233 238 242 244 249 253 256 260 264 266 267 266 268 269 271 271 271 271 268 266 265 265 265 264 264 263 262 260 256 252 250 248 248 249 251 250 249 248 246 243 240 239 237 237 236 237 238 237 235 233
56 57 56 55 54 54 56 56 60 65 71 79 87 97 107 114 125 143 159 173 187 200 212 219 224 228 228 229 230 230 232 233 232 232 232 236 241 242 244 247 251 253 257 260 259 258 261 267 270 271 270 270 268 266 264 262 262 262 262 262 262 260 258 255 252 250 246 244 243 243 244 243 243 241 239 238 236 234 232 231 232 233 233 232 230
51 53 54 54 52 50 49 48 45 42 42 49 61 77 92 106 121 133 144 160 174 187 202 213 221 227 229 232 234 234 236 239 243 245 248 253 257 255 252 251 252 253 255 255 254 257 262 265 267 269 270 270 269 268 267 266 265 265 265 265 265 263 259 256 254 251 247 244 242 240 240 240 239 238 238 237 236 234 233 232 232 233 232 232 232
44 45 47 50 51 50 49 48 46 41 34 22 11 14 46 68 94 121 139 155 167 177 190 204 215 225 231 235 237 238 239 243 250 255 256 258 261 264 263 261 259 258 258 257 259 262 264 264 266 270 272 272 272 272 271 270 269 269 269 268 268 267 264 261 259 255 252 250 247 244 243 243 243 241 241 240 239 238 237 236 235 235 235 236 238
35 34 35 38 41 45 45 45 47 44 41 35 24 355 319 307 318 337 330 193 186 192 198 205 212 221 230 237 239 241 243 246 251 255 256 258 261 265 267 265 264 265 265 265 266 265 263 264 266 269 271 272 274 274 273 272 271 270 270 270 270 269 268 267 264 262 260 258 256 253 251 250 249 248 247 246 245 243 243 242 240 238 238 240 243
20 14 13 19 23 27 30 30 34 37 38 37 35 28 7 314 287 287 292 293 288 270 247 235 229 228 230 235 239 242 244 246 249 252 255 257 261 264 267 267 268 269 270 270 268 265 262 262 264 266 268 271 273 273 273 272 271 271 270 270 270 271 271 270 269 267 266 264 262 261 260 258 257 255 254 252 250 249 248 248 246 244 243 244 246
354 345 339 346 354 359 3 5 8 12 18 20 22 24 22 8 333 298 282 279 279 279 274 264 252 245 241 239 240 241 242 244 246 249 252 255 258 261 264 267 269 271 272 272 270 266 264 262 263 265 267 269 271 271 272 271 271 271 270 271 271 271 272 272 272 271 269 267 265 264 263 263 262 260 259 257 255 254 254 254 253 252 251 251 251
346 334 322 316 318 325 332 337 340 343 348 352 354 359 3 4 358 344 320 296 282 275 271 270 268 263 257 251 249 247 245 245 244 245 249 252 255 258 261 264 266 269 271 271 270 268 265 263 264 264 264 267 268 269 270 270 270 270 270 270 270 270 271 271 272 271 271 270 268 266 265 264 264 263 262 260 259 258 258 258 258 258 257 256 256
0 345 328 314 308 306 308 313 318 323 326 329 330 334 337 341 343 342 339 330 316 298 284 277 273 271 268 265 262 259 258 256 252 250 249 251 253 255 258 260 262 264 266 267 267 267 264 262 265 264 263 265 265 267 268 270 270 270 270 270 270 269 269 270 270 270 270 269 269 268 266 265 265 264 263 263 262 261 261 261 261 260 260 260 259
11 3 347 323 309 304 301 302 306 309 311 314 315 317 319 321 323 323 324 324 324 319 310 300 287 278 272 269 267 267 267 266 264 261 259 258 256 256 257 258 259 260 262 263 264 264 261 261 264 263 263 263 263 264 265 267 268 269 269 270 270 270 269 269 269 269 269 269 268 269 268 267 266 265 264 263 263 262 262 262 262 262 262 262 262
8 7 2 345 317 302 299 298 298 299 301 303 304 305 305 306 307 308 308 308 308 308 309 308 304 295 285 277 272 270 269 268 268 268 267 266 265 263 262 261 261 260 261 262 263 264 262 262 263 262 262 261 261 261 262 263 264 265 266 267 268 268 269 269 269 269 269 269 269 269 269 269 269 268 266 266 265 264 263 263 263 263 263 263 263
359 0 2 357 340 309 296 293 291 291 292 293 294 295 295 295 295 295 296 297 297 296 297 297 297 297 295 290 283 278 275 272 271 271 270 269 269 269 268 267 266 265 265 264 265 266 266 266 267 266 265 263 263 262 263 263 264 264 265 265 266 267 268 268 268 268 268 269 269 270 270 270 270 270 269 269 269 268 267 266 266 265 264 263 263
342 347 351 354 351 330 301 291 286 283 282 283 283 284 285 286 286 286 286 287 288 288 289 289 288 289 289 288 287 285 284 281 278 275 273 272 271 270 270 270 270 270 270 269 268 269 269 269 270 271 270 270 269 269 269 269 268 268 268 267 267 267 267 268 268 268 268 268 269 269 270 270 271 271 270 270 270 270 269 269 268 268 266 265 263
312 318 325 334 341 336 315 294 283 277 275 275 275 275 276 278 280 280 279 280 280 281 282 282 283 283 284 283 283 283 283 284 283 281 278 277 275 273 273 272 272 272 271 271 271 271 271 271 271 272 273 273 273 273 273 273 272 272 272 272 271 270 270 270 269 269 270 270 270 270 270 270 271 271 271 271 271 270 270 270 270 269 269 267 266
306 304 303 305 313 318 315 301 285 276 272 271 271 271 271 274 276 277 277 276 276 276 276 277 278 279 279 280 281 281 281 281 281 281 281 281 280 279 277 275 274 273 272 271 271 270 271 271 272 272 272 273 273 273 272 272 272 272 272 272 273 273 273 273 273 273 273 273 273 273 273 272 272 272 272 272 272 272 271 271 271 270 270 269 268
300 299 297 296 296 298 299 297 290 283 279 276 275 276 274 274 274 275 276 276 275 275 274 274 274 275 275 275 276 277 278 278 279 278 278 278 279 279 280 279 279 278 277 275 273 272 271 271 271 271 271 272 272 272 272 272 271 271 271 271 271 271 272 273 273 274 275 275 275 276 276 275 275 274 273 273 272 272 272 272 272 271 271 270 269
290 290 291 293 293 291 288 286 285 285 284 284 284 284 284 283 281 280 279 279 278 277 276 275 275 274 274 274 274 274 274 275 276 276 276 276 276 275 277 278 280 280 280 280 279 277 274 273 272 271 271 270 270 271 271 271 271 271 271 271 271 271 271 271 271 272 272 273 274 274 275 276 276 276 276 275 274 273 272 272 272 272 271 271 270
289 286 286 288 290 291 289 286 285 286 287 288 289 289 290 292 293 292 291 289 287 285 284 282 281 279 278 278 277 276 276 276 276 275 275 274 274 274 274 276 277 278 278 279 279 278 277 275 274 273 272 271 271 271 271 271 271 270 270 271 271 271 271 271 271 271 271 271 271 271 272 273 274 275 276 276 276 275 273 272 272 271 271 271 270
292 290 287 288 289 290 290 290 290 290 291 292 292 292 293 295 297 299 299 299 298 297 295 293 291 289 286 284 283 282 280 280 279 278 277 276 275 274 274 274 274 275 276 276 275 274 274 274 274 274 274 273 272 272 271 271 271 271 271 270 270 270 270 270 270 270 270 270 270 270 270 270 271 272 273 274 274 274 274 273 272 271 271 270 270
292 291 289 288 288 289 289 290 291 291 292 293 294 296 296 297 298 299 300 300 300 300 300 300 299 298 296 295 293 290 287 285 284 282 281 280 279 278 277 275 274 274 274 275 274 273 273 272 272 273 274 274 273 273 272 272 271 271 271 271 271 270 270 270 270 270 270 270 270 270 270 270 270 270 270 270 271 271 271 271 271 271 270 270 270
290 288 287 285 285 285 286 287 288 289 290 291 293 295 296 297 298 299 300 300 300 300 300 301 300 299 300 300 299 297 295 294 291 289 287 286 285 283 282 280 277 275 275 275 275 274 273 272 271 272 273 273 273 273 272 272 272 271 271 271 271 270 270 270 270 270 270 270 270 271 271 271 270 270 269 269 268 268 268 269 269 268 268 268 268
287 285 283 281 280 279 279 281 283 285 286 288 290 292 293 294 296 297 298 299 299 301 301 301 300 299 299 299 299 298 298 298 297 295 293 292 292 290 288 286 283 280 278 277 276 276 275 274 273 272 272 272 273 272 272 272 273 272 272 271 271 271 271 270 270 270 269 270 270 270 270 271 271 271 270 270 269 268 267 267 267 267 266 266 266
283 281 280 278 278 277 276 276 278 280 282 285 288 289 291 292 293 293 293 295 296 299 300 300 300 300 300 299 298 298 298 297 297 296 295 295 294 293 292 290 288 286 283 281 279 279 278 277 275 273 273 273 273 273 273 273 273 273 273 273 272 272 272 272 271 271 271 270 270 270 270 270 270 270 270 270 269 269 268 268 267 266 266 265 265
279 277 276 275 276 277 276 274 273 274 277 281 283 285 287 289 289 289 290 292 293 294 295 296 298 299 299 299 299 299 299 299 298 298 297 296 294 293 292 291 290 289 287 286 284 283 282 280 278 277 275 274 274 274 273 273 273 274 274 274 273 273 273 273 273 272 272 272 272 271 271 270 270 270 270 270 269 269 269 268 268 267 266 266 265
279 277 275 273 272 272 273 273 271 271 273 274 276 279 280 282 283 284 286 288 290 291 292 293 294 295 296 297 298 298 298 298 298 297 296 295 294 293 292 291 290 290 289 287 287 286 284 283 282 281 279 277 276 275 274 274 273 273 273 273 273 273 273 273 273 273 274 274 273 273 273 272 272 271 271 270 270 269 269 268 268 267 267 266 266
281 279 278 276 272 270 270 271 272 273 273 272 271 271 273 275 278 280 282 283 285 287 288 289 289 290 292 293 292 291 292 293 293 293 293 294 293 292 292 291 291 291 289 288 287 285 283 283 283 283 282 281 280 279 278 277 276 275 274 274 274 273 273 273 273 273 273 274 274 274 274 274 273 273 272 272 271 270 270 269 268 268 267 267 267
280 279 279 278 276 274 272 273 274 275 277 277 276 276 276 277 278 279 280 281 283 284 285 285 285 286 289 287 285 286 288 288 288 288 290 291 291 292 291 291 291 290 288 287 286 284 283 282 282 282 281 281 281 281 280 279 279 278 277 276 275 275 274 274 273 273 273 273 273 273 274 274 274 273 273 272 272 271 271 270 270 269 269 268 268
274 274 274 274 274 273 272 274 275 277 279 281 282 283 283 282 281 282 282 282 283 284 285 285 283 284 286 284 283 284 285 284 283 284 286 286 288 289 290 290 289 287 286 285 285 284 283 282 281 280 279 279 280 279 278 277 277 276 276 276 276 276 275 275 275 274 274 274 274 273 273 273 273 273 273 273 272 272 271 271 270 270 270 269 269
271 270 270 270 271 271 271 273 276 278 279 280 280 281 281 280 282 283 283 284 284 286 287 286 286 287 287 285 285 286 285 284 283 283 283 282 284 285 285 285 285 285 285 285 284 283 283 282 281 279 278 278 277 276 275 275 274 273 273 274 274 274 274 275 275 275 275 274 274 274 273 273 273 273 273 273 272 272 271 271 270 270 270 269 269
274 272 270 271 273 274 275 275 276 276 276 278 278 279 279 279 280 282 283 285 287 288 288 288 289 290 291 290 289 289 289 288 287 286 284 283 283 283 281 280 280 282 283 284 283 282 282 281 280 279 278 276 275 274 274 274 274 273 272 272 273 273 274 274 273 273 273 273 273 273 273 273 273 273 273 272 272 271 271 271 270 270 269 269 269
274 272 270 271 273 276 277 279 281 282 283 283 284 285 284 284 283 283 283 285 286 287 287 287 289 289 289 289 289 289 290 290 290 290 288 286 285 285 284 282 279 279 280 281 281 279 279 279 279 278 277 275 273 273 273 273 273 273 272 272 272 272 272 272 271 271 271 271 271 271 271 271 271 271 271 272 272 272 271 271 270 270 269 269 269
278 277 276 275 275 278 280 282 283 284 285 286 286 287 287 286 286 285 284 284 285 285 285 286 286 287 287 287 287 287 287 288 288 289 289 288 288 288 287 285 283 281 279 279 279 277 277 277 277 277 277 276 273 272 271 271 271 271 270 270 270 269 269 269 269 269 269 269 270 269 269 270 270 270 270 270 270 271 271 271 271 270 269 269 268
283 283 283 282 280 280 280 280 280 281 282 283 285 286 287 287 287 287 286 286 286 285 285 285 285 284 285 285 285 286 286 286 286 287 287 287 287 287 287 286 284 283 281 280 279 278 277 276 276 276 276 275 274 272 271 270 269 269 269 268 268 268 268 268 268 269 269 269 269 269 269 269 269 269 269 269 269 269 270 270 270 270 270 269 268
281 281 281 280 279 279 278 279 279 281 282 283 285 286 287 287 288 288 288 288 288 287 286 286 285 285 285 285 285 285 285 285 286 286 286 286 286 286 285 285 284 284 283 281 279 278 278 277 276 275 275 275 274 273 272 270 269 268 268 267 267 267 267 267 267 267 268 268 268 268 268 268 268 269 269 269 269 269 269 269 269 269 269 269 269
282 281 281 280 280 280 280 280 280 281 282 283 284 285 286 287 287 287 287 287 288 288 287 287 287 287 287 287 287 287 287 287 287 286 286 286 286 286 285 284 284 283 283 282 280 279 278 277 276 276 276 275 274 274 274 273 271 270 269 268 268 267 267 266 266 266 266 267 267 267 267 267 267 268 268 268 268 269 269 269 269 269 269 268 268
287 286 285 284 283 283 282 281 281 281 281 282 283 285 286 286 286 286 286 287 287 287 287 287 287 287 286 286 286 286 286 286 286 286 286 286 286 285 285 284 283 282 281 281 280 279 278 278 277 277 276 275 275 275 274 274 273 272 271 270 269 268 268 268 267 267 266 266 266 267 267 267 267 267 267 267 267 268 268 268 269 269 269 269 269
287 285 283 283 282 281 281 280 280 280 281 282 283 284 284 284 285 286 286 286 286 287 287 288 288 288 288 288 287 287 286 286 286 286 286 285 284 284 283 283 282 281 280 279 279 278 278 277 277 277 276 275 275 275 274 274 274 273 272 272 270 269 268 268 268 267 266 266 265 266 266 266 267 267 267 267 267 267 267 267 268 268 268 269 269
284 282 279 278 277 277 277 277 277 278 278 279 280 281 282 283 284 286 287 287 288 289 290 291 291 292 292 292 292 291 290 289 288 287 286 285 284 283 282 281 281 281 280 279 278 277 277 276 276 276 276 275 275 274 274 273 273 272 272 272 271 271 269 269 268 267 267 266 265 265 265 265 266 266 266 266 266 266 267 267 267 267 267 267 268
282 279 276 274 273 273 273 273 273 274 276 277 278 280 281 283 285 286 288 289 291 292 292 293 293 294 294 293 293 293 292 292 291 290 289 287 285 283 282 281 281 280 280 279 278 277 276 275 275 275 275 275 275 274 274 273 273 272 272 272 272 271 271 270 269 268 268 268 267 266 265 265 264 264 264 264 264 265 265 266 266 266 266 266 267
278 276 275 273 272 272 272 272 273 273 274 276 277 279 281 283 285 287 288 290 291 292 292 293 293 293 293 293 293 293 293 293 292 291 290 289 286 284 282 281 281 280 280 279 279 278 277 276 275 275 275 274 274 274 274 274 273 272 272 271 271 271 271 270 269 269 268 268 267 267 266 265 264 264 263 263 263 263 264 265 265 265 265 265 266
276 276 275 274 273 273 273 274 274 275 275 276 277 279 282 284 286 287 288 290 291 292 292 292 292 292 292 292 292 293 293 293 293 293 291 289 287 284 282 281 281 280 280 280 279 279 279 278 277 276 275 275 274 274 274 273 273 272 271 271 270 270 270 270 269 269 269 268 267 267 266 265 265 264 264 263 262 262 263 263 263 264 264 264 264
278 278 277 277 276 276 275 275 276 276 277 277 279 280 282 284 286 288 289 290 291 291 291 291 291 291 291 292 293 294 295 295 295 294 292 290 287 285 283 282 281 280 280 280 280 279 279 278 277 277 276 275 274 273 273 272 272 272 271 270 269 269 268 268 268 268 268 268 268 267 267 266 265 264 263 263 262 262 262 262 262 262 263 263 263
281 281 281 280 279 279 278 278 279 279 279 279 281 282 283 284 286 287 289 289 290 290 290 290 291 291 292 293 295 296 297 297 296 295 292 290 287 285 283 281 281 280 280 280 280 279 278 278 277 276 275 275 274 273 273 272 271 271 271 270 270 269 268 267 266 266 266 266 267 267 267 266 266 265 263 262 261 261 261 261 261 261 261 261 261
282 282 282 281 281 281 281 281 281 281 281 282 282 283 283 284 285 287 288 289 290 290 291 291 291 292 293 294 295 297 297 297 296 295 292 290 287 284 282 280 280 279 279 280 279 279 278 277 276 275 275 274 273 273 272 272 271 271 270 270 269 269 268 267 266 265 264 263 263 264 265 265 265 264 264 263 262 261 260 260 259 259 260 260 260
282 282 281 281 282 282 282 282 282 282 282 283 283 283 284 284 286 287 288 289 291 292 292 292 293 294 295 296 296 297 297 297 296 294 292 290 287 284 282 280 279 278 278 278 278 278 278 277 276 275 274 273 272 272 271 271 270 270 270 269 269 268 267 267 266 265 264 262 261 261 261 262 263 263 263 263 262 262 262 261 260 259 259 259 259
283 283 282 282 282 282 282 282 282 282 282 282 283 283 284 284 285 286 288 290 292 293 294 295 296 297 297 297 297 297 297 297 296 294 292 291 289 286 284 282 279 278 277 276 276 276 276 276 276 275 274 273 272 272 271 271 270 270 269 269 268 268 267 267 266 265 264 263 261 259 259 259 261 262 263 263 262 262 262 262 261 261 260 259 259
283 283 282 282 282 282 282 282 282 282 282 282 283 283 283 284 285 287 289 291 293 295 296 297 297 298 297 297 297 297 297 296 295 294 293 292 290 288 286 284 282 279 278 276 275 275 275 275 275 275 275 274 273 272 271 271 270 270 269 269 269 269 268 268 267 267 266 265 263 261 259 258 258 260 263 264 265 264 263 262 262 262 261 261 261
282 282 282 282 282 282 283 283 282 282 283 283 284 284 285 286 287 289 292 294 295 296 297 297 297 297 297 297 297 297 296 295 295 294 293 292 291 289 288 286 284 282 280 278 277 276 275 275 275 275 275 275 275 275 275 274 272 271 271 270 270 270 270 269 269 269 268 268 266 265 263 262 260 260 261 264 266 267 267 266 265 264 263 262 262
Height
5881 5880 5880 5880 5880 5880 5879 5879 5879 5879 5879 5879 5879 5879 5879 5880 5880 5881 5881 5882 5883 5883 5883 5883 5884 5884 5884 5884 5885 5885 5885 5885 5885 5886 5886 5886 5886 5887 5886 5887 5887 5887 5887 5887 5887 5887 5887 5887 5887 5887 5886 5886 5886 5886 5886 5886 5886 5886 5887 5887 5886 5886 5887 5887 5887 5887 5887 5886 5886 5886 5886 5886 5886 5886 5886 5886 5885 5885 5885 5885 5885 5884 5884 5884 5884
5881 5881 5881 5880 5880 5880 5880 5880 5880 5879 5879 5879 5879 5879 5879 5879 5880 5880 5881 5881 5882 5882 5882 5883 5883 5883 5883 5883 5884 5884 5884 5884 5884 5885 5885 5885 5885 5886 5886 5886 5886 5886 5886 5886 5886 5886 5886 5886 5886 5886 5886 5885 5885 5885 5885 5885 5885 5885 5885 5885 5885 5885 5885 5885 5885 5885 5885 5885 5885 5885 5885 5885 5885 5885 5885 5885 5884 5884 5884 5884 5883 5883 5883 5883 5883
5882 5882 5881 5881 5881 5881 5881 5881 5880 5880 5880 5880 5880 5879 5879 5880 5880 5880 5880 5880 5881 5881 5882 5882 5882 5883 5883 5883 5883 5883 5883 5883 5883 5884 5884 5884 5884 5885 5885 5885 5885 5885 5885 5885 5886 5886 5886 5886 5885 5885 5885 5885 5885 5884 5884 5884 5884 5884 5884 5884 5884 5884 5884 5884 5884 5884 5884 5884 5884 5884 5884 5884 5884 5884 5884 5884 5883 5883 5883 5882 5882 5882 5882 5882 5882
5883 5882 5882 5882 5881 5881 5881 5881 5881 5881 5881 5881 5880 5880 5880 5880 5880 5880 5880 5880 5880 5880 5881 5881 5882 5882 5882 5883 5883 5883 5883 5883 5883 5883 5883 5884 5884 5884 5884 5884 5884 5884 5884 5885 5885 5885 5885 5885 5885 5885 5885 5885 5884 5884 5884 5884 5884 5884 5884 5883 5883 5883 5883 5883 5883 5883 5883 5883 5883 5883 5883 5883 5883 5883 5883 5882 5882 5882 5882 5881 5881 5881 5881 5881 5881
5883 5883 5883 5883 5882 5882 5882 5882 5882 5882 5882 5882 5881 5881 5881 5881 5881 5881 5881 5880 5880 5880 5880 5881 5881 5881 5882 5882 5883 5883 5883 5883 5883 5883 5883 5883 5884 5884 5884 5884 5884 5883 5883 5884 5884 5884 5884 5884 5884 5884 5884 5884 5884 5884 5883 5883 5883 5883 5883 5883 5883 5882 5882 5882 5882 5882 5881 5881 5881 5881 5881 5881 5881 5881 5881 5881 5880 5880 5880 5880 5880 5880 5880 5879 5879
5884 5883 5883 5883 5883 5883 5882 5882 5882 5882 5882 5882 5882 5882 5882 5881 5881 5881 5881 5881 5881 5881 5881 5881 5881 5881 5881 5882 5882 5882 5883 5883 5883 5883 5884 5884 5884 5884 5884 5884 5883 5883 5883 5883 5883 5883 5883 5883 5883 5883 5883 5883 5883 5883 5883 5883 5883 5883 5883 5882 5882 5882 5882 5881 5881 5881 5881 5880 5880 5880 5880 5880 5880 5879 5879 5879 5879 5879 5879 5879 5879 5879 5878 5878 5878
5884 5884 5884 5883 5883 5883 5883 5883 5883 5882 5882 5882 5882 5882 5882 5882 5882 5882 5882 5881 5881 5881 5881 5881 5881 5881 5881 5881 5882 5882 5882 5883 5883 5884 5884 5884 5884 5884 5884 5884 5883 5883 5883 5883 5883 5883 5883 5883 5883 5882 5882 5882 5882 5882 5882 5882 5882 5882 5882 5882 5882 5882 5881 5881 5881 5881 5880 5880 5880 5880 5879 5879 5879 5878 5878 5878 5879 5878 5878 5878 5878 5878 5878 5878 5878
5884 5884 5884 5884 5883 5883 5883 5883 5883 5883 5882 5882 5882 5882 5882 5882 5882 5882 5882 5882 5882 5882 5882 5882 5881 5881 5881 5881 5881 5882 5882 5883 5883 5883 5883 5883 5884 5884 5884 5883 5883 5883 5883 5883 5883 5883 5883 5882 5882 5882 5882 5881 5882 5882 5882 5882 5882 5881 5881 5881 5881 5881 5881 5881 5881 5880 5880 5880 5879 5879 5879 5878 5878 5878 5878 5878 5878 5877 5877 5877 5876 5876 5877 5877 5877
5884 5884 5884 5883 5883 5883 5883 5883 5883 5883 5883 5882 5882 5882 5882 5882 5882 5882 5882 5882 5882 5882 5882 5882 5882 5882 5882 5882 5882 5882 5882 5882 5882 5882 5882 5883 5883 5883 5883 5883 5883 5883 5882 5882 5882 5882 5882 5882 5881 5881 5881 5881 5881 5881 5881 5881 5881 5881 5881 5881 5880 5880 5880 5880 5880 5880 5879 5879 5879 5879 5878 5878 5878 5878 5877 5877 5877 5876 5876 5876 5876 5876 5876 5876 5876
5884 5884 5883 5883 5883 5883 5883 5883 5883 5883 5883 5883 5882 5882 5882 5882 5882 5882 5882 5882 5882 5882 5882 5882 5882 5882 5882 5882 5882 5882 5882 5882 5882 5882 5882 5882 5882 5882 5882 5882 5882 5882 5882 5882 5882 5881 5881 5881 5881 5881 5880 5880 5880 5880 5880 5880 5880 5880 5880 5880 5880 5879 5879 5879 5879 5879 5879 5878 5878 5878 5878 5877 5877 5877 5876 5876 5876 5875 5875 5875 5875 5874 5875 5875 5874
5884 5884 5883 5883 5883 5883 5883 5883 5883 5883 5883 5883 5882 5882 5882 5882 5882 5882 5882 5882 5882 5882 5882 5882 5882 5882 5881 5881 5881 5881 5881 5881 5881 5881 5881 5881 5881 5881 5881 5881 5881 5881 5881 5881 5881 5881 5881 5880 5880 5880 5879 5879 5879 5879 5879 5879 5879 5879 5879 5879 5879 5878 5878 5878 5878 5878 5877 5877 5877 5877 5877 5876 5876 5876 5875 5875 5875 5874 5874 5874 5873 5873 5873 5873 5873
5883 5883 5883 5883 5883 5883 5883 5882 5882 5882 5882 5882 5882 5882 5882 5882 5882 5882 5882 5882 5882 5881 5881 5881 5881 5881 5881 5881 5881 5881 5881 5881 5881 5880 5880 5880 5880 5880 5880 5880 5880 5880 5880 5880 5879 5880 5880 5879 5879 5879 5879 5878 5878 5878 5878 5878 5878 5878 5878 5878 5877 5877 5877 5877 5877 5876 5876 5876 5876 5875 5875 5875 5874 5874 5874 5873 5873 5873 5873 5872 5872 5872 5872 5872 5871
5883 5883 5882 5882 5882 5882 5882 5882 5882 5882 5882 5882 5882 5882 5882 5882 5882 5882 5881 5881 5881 5881 5881 5881 5881 5881 5881 5881 5881 5881 5880 5880 5880 5880 5880 5880 5880 5879 5879 5879 5879 5879 5879 5879 5878 5879 5878 5878 5878 5878 5878 5877 5877 5877 5877 5877 5877 5877 5876 5876 5876 5876 5876 5876 5875 5875 5875 5874 5874 5874 5873 5873 5873 5873 5872 5872 5872 5871 5871 5871 5871 5870 5870 5870 5870
5882 5882 5882 5882 5881 5882 5882 5881 5881 5881 5881 5881 5881 5881 5881 5881 5881 5881 5881 5881 5881 5880 5880 5880 5880 5880 5880 5880 5880 5880 5880 5880 5880 5879 5879 5879 5879 5879 5879 5879 5878 5878 5878 5878 5878 5878 5877 5877 5877 5877 5877 5877 5876 5876 5876 5876 5876 5875 5875 5875 5875 5874 5874 5874 5874 5874 5873 5873 5872 5872 5871 5871 5871 5871 5871 5870 5870 5870 5869 5869 5869 5869 5869 5868 5868
5881 5881 5881 5881 5881 5881 5881 5881 5881 5880 5880 5880 5880 5880 5880 5880 5880 5880 5880 5880 5879 5879 5879 5879 5879 5879 5879 5879 5879 5879 5879 5879 5879 5879 5879 5879 5879 5878 5878 5878 5878 5878 5877 5877 5877 5877 5877 5877 5876 5876 5876 5876 5875 5875 5875 5875 5875 5874 5874 5874 5873 5873 5873 5873 5872 5872 5872 5871 5871 5870 5870 5869 5869 5869 5869 5869 5868 5868 5868 5867 5867 5867 5867 5867 5866
5881 5880 5880 5880 5880 5880 5880 5880 5880 5880 5879 5879 5879 5879 5879 5879 5879 5879 5879 5879 5878 5878 5878 5878 5878 5878 5878 5878 5878 5878 5878 5878 5878 5878 5877 5877 5877 5877 5877 5877 5877 5877 5876 5877 5877 5876 5876 5876 5875 5875 5875 5875 5874 5874 5874 5874 5873 5873 5873 5872 5872 5872 5871 5871 5871 5870 5870 5870 5869 5869 5868 5868 5868 5867 5867 5867 5866 5866 5866 5865 5865 5865 5865 5865 5865
5880 5880 5879 5879 5879 5879 5879 5879 5879 5879 5878 5878 5878 5878 5878 5877 5877 5877 5877 5877 5877 5877 5877 5877 5877 5877 5877 5877 5877 5877 5877 5876 5876 5876 5876 5876 5876 5876 5875 5875 5875 5875 5875 5875 5875 5875 5875 5874 5874 5874 5873 5873 5873 5873 5873 5872 5872 5872 5872 5871 5871 5870 5870 5869 5869 5869 5868 5868 5867 5867 5867 5866 5866 5866 5865 5865 5865 5864 5864 5863 5863 5863 5862 5862 5862
5879 5879 5878 5878 5878 5878 5878 5878 5878 5877 5877 5877 5877 5877 5877 5877 5877 5876 5876 5876 5876 5876 5876 5876 5876 5876 5876 5876 5875 5875 5875 5875 5875 5875 5875 5875 5874 5874 5874 5874 5874 5873 5873 5873 5873 5873 5873 5872 5872 5872 5872 5871 5871 5871 5871 5871 5870 5870 5870 5870 5869 5869 5868 5868 5868 5867 5867 5866 5866 5865 5865 5864 5864 5864 5864 5863 5863 5863 5862 5862 5861 5861 5860 5860 5860
5878 5877 5877 5877 5877 5877 5877 5877 5877 5876 5876 5876 5876 5876 5876 5876 5876 5876 5875 5875 5875 5875 5875 5874 5874 5874 5874 5874 5874 5874 5874 5874 5874 5874 5873 5873 5873 5873 5872 5872 5872 5871 5871 5871 5871 5871 5871 5870 5870 5870 5870 5869 5869 5869 5869 5869 5868 5868 5868 5868 5867 5867 5867 5866 5866 5865 5865 5864 5864 5863 5863 5863 5862 5862 5862 5861 5861 5861 5860 5860 5859 5859 5859 5858 5858
5877 5877 5876 5876 5876 5876 5876 5875 5875 5875 5875 5875 5875 5875 5875 5875 5875 5875 5875 5875 5874 5874 5874 5873 5873 5873 5873 5872 5872 5872 5872 5872 5872 5872 5872 5872 5871 5871 5871 5871 5870 5870 5869 5869 5869 5869 5869 5868 5868 5868 5867 5867 5867 5867 5866 5866 5866 5866 5865 5865 5865 5865 5864 5864 5864 5863 5863 5862 5862 5861 5861 5861 5860 5860 5859 5859 5859 5859 5859 5858 5858 5857 5857 5857 5856
5877 5876 5876 5875 5875 5875 5875 5874 5874 5874 5874 5874 5874 5874 5874 5874 5874 5874 5874 5874 5874 5873 5873 5873 5872 5872 5872 5871 5871 5871 5871 5870 5870 5870 5870 5870 5869 5869 5869 5869 5868 5868 5867 5867 5867 5867 5866 5866 5866 5865 5865 5864 5864 5864 5864 5863 5863 5863 5863 5863 5862 5862 5862 5862 5861 5861 5860 5860 5859 5859 5859 5858 5858 5857 5857 5857 5857 5856 5856 5856 5856 5855 5855 5854 5854
5876 5875 5875 5874 5874 5874 5873 5873 5873 5873 5873 5873 5873 5873 5873 5873 5873 5873 5873 5873 5873 5873 5872 5872 5872 5871 5871 5870 5870 5870 5869 5869 5869 5868 5868 5868 5867 5867 5867 5867 5867 5866 5865 5864 5864 5864 5864 5864 5863 5863 5862 5862 5862 5862 5861 5861 5860 5860 5860 5860 5859 5859 5859 5859 5858 5858 5858 5857 5857 5856 5856 5856 5855 5855 5854 5854 5854 5854 5853 5853 5853 5853 5853 5852 5852
5874 5874 5874 5873 5873 5873 5872 5872 5872 5872 5872 5871 5871 5872 5872 5872 5872 5871 5871 5871 5871 5871 5871 5871 5871 5870 5870 5870 5870 5869 5868 5868 5867 5867 5866 5866 5866 5865 5865 5865 5865 5864 5863 5862 5862 5862 5862 5862 5861 5861 5860 5860 5860 5859 5859 5858 5858 5857 5857 5857 5856 5856 5856 5855 5855 5855 5854 5854 5854 5853 5853 5853 5852 5852 5852 5851 5851 5851 5850 5850 5850 5850 5850 5849 5849
5872 5872 5872 5872 5872 5871 5871 5871 5871 5870 5870 5870 5870 5870 5870 5870 5870 5870 5869 5869 5869 5869 5869 5869 5869 5869 5868 5868 5868 5868 5867 5867 5866 5866 5865 5864 5864 5864 5863 5863 5863 5862 5861 5860 5859 5859 5859 5859 5859 5859 5858 5857 5857 5857 5856 5856 5855 5855 5854 5854 5853 5853 5853 5852 5852 5851 5851 5851 5850 5850 5850 5849 5849 5849 5848 5848 5848 5847 5847 5847 5847 5847 5846 5846 5846
5870 5870 5870 5869 5869 5869 5869 5869 5869 5869 5868 5868 5868 5868 5868 5868 5868 5868 5868 5867 5867 5867 5867 5867 5867 5867 5866 5866 5866 5866 5865 5865 5865 5864 5864 5863 5862 5862 5862 5861 5861 5860 5860 5858 5857 5856 5856 5856 5857 5856 5855 5854 5854 5854 5853 5853 5852 5852 5851 5851 5851 5850 5850 5849 5849 5848 5848 5847 5847 5847 5846 5846 5846 5845 5845 5845 5844 5844 5844 5843 5843 5843 5843 5843 5843
5868 5868 5868 5868 5867 5867 5867 5867 5867 5867 5866 5866 5867 5867 5867 5866 5866 5866 5866 5865 5865 5865 5865 5864 5864 5864 5864 5864 5864 5864 5864 5863 5863 5862 5862 5862 5861 5860 5860 5859 5859 5858 5858 5857 5855 5854 5854 5854 5854 5853 5852 5852 5851 5850 5850 5850 5849 5849 5848 5848 5847 5847 5846 5846 5845 5845 5845 5844 5844 5843 5843 5842 5842 5842 5841 5841 5841 5841 5840 5840 5840 5840 5839 5839 5839
5866 5866 5866 5866 5866 5865 5865 5865 5865 5865 5865 5865 5865 5865 5865 5864 5864 5864 5863 5863 5863 5863 5862 5862 5862 5861 5861 5861 5861 5861 5861 5861 5861 5860 5860 5859 5859 5858 5857 5857 5856 5856 5856 5855 5853 5853 5852 5851 5851 5851 5850 5849 5848 5847 5847 5846 5846 5845 5845 5844 5844 5843 5843 5842 5842 5841 5841 5841 5840 5840 5839 5839 5839 5838 5838 5838 5837 5837 5837 5837 5836 5836 5836 5835 5835
5865 5864 5864 5864 5864 5864 5864 5864 5863 5863 5863 5863 5863 5863 5863 5862 5862 5862 5861 5861 5861 5860 5860 5860 5860 5859 5859 5858 5858 5858 5858 5858 5857 5857 5857 5856 5856 5856 5855 5855 5854 5853 5853 5852 5851 5850 5849 5848 5848 5848 5847 5847 5846 5845 5844 5843 5842 5842 5841 5841 5840 5840 5839 5838 5838 5838 5837 5837 5837 5836 5836 5835 5835 5835 5834 5834 5834 5833 5833 5833 5833 5832 5832 5832 5832
5863 5863 5862 5862 5862 5862 5862 5862 5862 5862 5861 5861 5861 5861 5861 5860 5860 5860 5859 5859 5859 5858 5858 5858 5857 5857 5857 5856 5856 5855 5854 5854 5854 5853 5852 5852 5852 5852 5852 5852 5851 5851 5850 5850 5849 5847 5846 5845 5845 5845 5844 5844 5843 5842 5841 5840 5839 5839 5838 5837 5836 5836 5835 5835 5834 5834 5833 5833 5832 5832 5832 5831 5831 5831 5830 5830 5829 5829 5829 5829 5828 5828 5828 5828 5828
5861 5861 5861 5860 5860 5860 5860 5860 5860 5860 5860 5860 5859 5859 5859 5859 5859 5858 5858 5857 5856 5856 5856 5856 5855 5854 5854 5854 5853 5852 5852 5851 5850 5849 5849 5848 5848 5847 5847 5848 5848 5847 5847 5846 5845 5844 5843 5842 5842 5841 5841 5840 5840 5838 5838 5837 5836 5835 5834 5834 5833 5832 5832 5831 5830 5829 5829 5828 5828 5827 5827 5827 5826 5826 5825 5825 5825 5824 5824 5824 5824 5824 5824 5824 5824
5860 5859 5859 5859 5858 5858 5858 5858 5858 5858 5858 5858 5858 5858 5858 5858 5857 5856 5856 5855 5854 5854 5854 5853 5853 5852 5852 5851 5850 5849 5849 5848 5847 5846 5846 5844 5843 5843 5843 5843 5843 5842 5842 5842 5841 5840 5839 5838 5838 5837 5837 5836 5836 5834 5833 5833 5832 5831 5830 5829 5828 5828 5827 5827 5826 5825 5825 5824 5824 5823 5822 5822 5821 5821 5820 5820 5820 5819 5819 5819 5819 5819 5818 5819 5819
5858 5858 5858 5857 5857 5857 5856 5856 5856 5856 5856 5856 5856 5856 5856 5855 5855 5854 5854 5853 5853 5852 5852 5851 5850 5850 5850 5850 5848 5847 5846 5846 5844 5844 5843 5842 5840 5840 5840 5839 5838 5837 5837 5837 5837 5836 5834 5834 5833 5833 5833 5833 5832 5830 5828 5828 5827 5826 5825 5824 5823 5823 5822 5822 5821 5820 5820 5819 5819 5818 5817 5817 5816 5816 5815 5815 5814 5814 5814 5814 5813 5813 5813 5813 5813
5857 5856 5856 5856 5856 5855 5855 5855 5855 5855 5854 5854 5854 5854 5854 5853 5853 5852 5852 5851 5851 5851 5850 5849 5848 5848 5848 5847 5847 5845 5844 5843 5842 5842 5841 5840 5837 5837 5837 5836 5835 5833 5832 5832 5832 5831 5830 5829 5829 5828 5828 5828 5827 5825 5824 5823 5822 5822 5821 5820 5819 5818 5817 5816 5816 5815 5814 5813 5813 5812 5812 5811 5811 5810 5810 5809 5809 5808 5808 5808 5808 5807 5807 5807 5808
5854 5854 5854 5854 5854 5853 5853 5853 5853 5852 5852 5852 5852 5852 5852 5851 5851 5850 5850 5849 5849 5848 5847 5847 5846 5845 5845 5844 5844 5843 5841 5840 5839 5838 5838 5837 5835 5834 5834 5833 5833 5831 5829 5828 5827 5826 5825 5824 5823 5823 5823 5823 5822 5820 5819 5818 5817 5817 5816 5815 5814 5813 5812 5811 5810 5809 5809 5808 5807 5806 5806 5806 5805 5805 5804 5804 5804 5803 5803 5802 5802 5802 5802 5802 5802
5852 5852 5851 5851 5851 5851 5851 5851 5850 5850 5850 5850 5850 5849 5849 5849 5848 5848 5847 5847 5847 5846 5845 5844 5844 5843 5841 5841 5840 5839 5838 5837 5836 5835 5834 5833 5832 5831 5830 5830 5829 5828 5826 5825 5823 5822 5820 5819 5818 5817 5817 5816 5816 5815 5814 5814 5813 5812 5811 5810 5809 5808 5807 5805 5805 5804 5803 5802 5802 5801 5800 5800 5799 5799 5799 5798 5798 5798 5797 5797 5797 5796 5796 5796 5796
5849 5849 5849 5849 5849 5848 5848 5848 5848 5848 5848 5847 5847 5847 5846 5846 5845 5845 5844 5844 5843 5842 5842 5841 5841 5840 5838 5837 5837 5836 5835 5833 5832 5831 5830 5829 5828 5827 5826 5825 5824 5823 5822 5821 5820 5818 5816 5814 5813 5812 5811 5810 5810 5809 5808 5808 5807 5806 5805 5804 5803 5802 5801 5800 5799 5798 5798 5797 5797 5796 5795 5795 5794 5794 5793 5793 5792 5792 5792 5792 5791 5791 5791 5791 5791
5847 5847 5847 5846 5846 5846 5846 5846 5845 5845 5845 5844 5844 5843 5843 5842 5842 5841 5840 5840 5839 5839 5838 5837 5837 5836 5835 5834 5833 5832 5831 5830 5829 5828 5826 5825 5824 5822 5821 5820 5819 5818 5817 5816 5815 5813 5812 5810 5809 5807 5806 5805 5804 5803 5802 5802 5801 5800 5799 5798 5797 5796 5796 5794 5793 5792 5791 5791 5791 5791 5790 5790 5789 5789 5788 5787 5787 5786 5786 5786 5786 5785 5785 5785 5785
5845 5844 5844 5844 5843 5843 5843 5842 5842 5842 5841 5841 5840 5840 5839 5838 5838 5837 5836 5836 5835 5835 5834 5833 5832 5832 5831 5830 5829 5828 5827 5826 5825 5823 5822 5820 5819 5818 5816 5815 5814 5813 5812 5810 5809 5808 5806 5805 5804 5803 5802 5800 5799 5797 5796 5796 5795 5794 5793 5792 5792 5791 5789 5788 5787 5787 5786 5785 5785 5785 5784 5784 5784 5783 5783 5782 5781 5781 5781 5781 5780 5780 5779 5779 5779
5842 5842 5841 5841 5840 5840 5839 5839 5838 5838 5837 5837 5836 5836 5835 5834 5834 5833 5833 5832 5831 5831 5830 5829 5828 5827 5826 5826 5825 5824 5823 5821 5820 5819 5817 5816 5815 5813 5811 5810 5808 5807 5806 5804 5803 5802 5801 5799 5797 5797 5797 5795 5793 5792 5791 5790 5789 5788 5787 5787 5786 5785 5783 5782 5781 5781 5780 5779 5779 5778 5778 5778 5778 5777 5777 5776 5776 5776 5775 5775 5775 5774 5774 5773 5773
5839 5838 5838 5837 5836 5836 5835 5835 5834 5833 5833 5833 5832 5831 5831 5830 5830 5829 5828 5828 5827 5826 5825 5824 5823 5822 5821 5820 5819 5819 5818 5817 5815 5814 5813 5811 5809 5808 5806 5804 5802 5801 5800 5798 5796 5796 5794 5793 5791 5790 5790 5789 5787 5786 5785 5784 5783 5782 5780 5780 5779 5779 5777 5776 5775 5774 5773 5773 5772 5771 5771 5771 5771 5771 5771 5771 5770 5770 5769 5769 5768 5768 5768 5768 5767
5835 5835 5834 5834 5833 5832 5831 5831 5830 5829 5829 5828 5828 5828 5827 5826 5825 5825 5824 5823 5822 5821 5820 5819 5818 5817 5815 5814 5813 5813 5812 5811 5809 5808 5807 5805 5803 5802 5800 5799 5797 5794 5793 5792 5790 5789 5788 5786 5785 5783 5783 5782 5781 5780 5779 5777 5776 5775 5774 5773 5772 5771 5771 5770 5769 5767 5767 5766 5765 5765 5764 5764 5764 5763 5764 5764 5763 5763 5763 5763 5762 5762 5761 5761 5761
5832 5832 5831 5830 5829 5828 5827 5826 5826 5825 5825 5824 5824 5823 5822 5821 5820 5819 5819 5817 5816 5815 5814 5813 5812 5811 5810 5809 5808 5807 5805 5804 5803 5802 5800 5799 5797 5795 5794 5792 5790 5788 5786 5785 5783 5782 5781 5779 5778 5777 5776 5775 5774 5772 5771 5770 5769 5768 5767 5766 5765 5764 5764 5763 5761 5760 5760 5759 5758 5758 5757 5756 5756 5756 5756 5756 5756 5756 5756 5756 5756 5755 5755 5754 5754
5828 5828 5827 5826 5825 5824 5823 5822 5822 5821 5820 5820 5819 5818 5817 5817 5815 5814 5813 5812 5811 5810 5809 5808 5807 5806 5804 5803 5802 5801 5800 5798 5796 5795 5793 5792 5790 5788 5787 5785 5783 5782 5780 5778 5776 5775 5773 5772 5771 5769 5768 5767 5766 5765 5764 5763 5761 5760 5760 5758 5757 5756 5756 5755 5753 5752 5753 5752 5751 5751 5750 5749 5749 5748 5748 5748 5748 5748 5748 5748 5748 5748 5748 5747 5747
5824 5823 5822 5821 5821 5820 5819 5818 5817 5816 5816 5815 5814 5813 5812 5811 5810 5809 5808 5807 5806 5804 5803 5802 5801 5800 5799 5798 5797 5795 5794 5792 5790 5788 5786 5785 5783 5781 5780 5778 5776 5774 5773 5771 5769 5767 5765 5764 5763 5762 5761 5760 5758 5757 5756 5755 5754 5753 5752 5750 5750 5749 5748 5748 5746 5744 5744 5744 5743 5743 5742 5742 5742 5741 5740 5740 5740 5740 5740 5740 5740 5740 5740 5740 5740
5819 5819 5818 5817 5816 5815 5814 5813 5812 5811 5810 5809 5808 5807 5806 5805 5804 5803 5802 5801 5800 5799 5798 5796 5795 5794 5793 5792 5790 5789 5787 5785 5783 5782 5780 5778 5776 5774 5773 5771 5769 5767 5765 5764 5762 5760 5758 5756 5755 5754 5752 5751 5750 5749 5748 5747 5746 5745 5744 5742 5742 5741 5740 5740 5739 5738 5737 5736 5735 5735 5735 5735 5735 5734 5734 5732 5732 5732 5732 5732 5732 5732 5732 5732 5732
5815 5814 5814 5813 5812 5811 5810 5809 5807 5806 5805 5804 5803 5802 5800 5799 5798 5797 5796 5795 5794 5793 5792 5790 5789 5788 5787 5785 5783 5782 5780 5778 5776 5775 5773 5772 5770 5768 5766 5764 5762 5760 5758 5756 5755 5753 5751 5749 5748 5746 5745 5743 5742 5741 5740 5739 5738 5737 5736 5735 5733 5733 5732 5732 5732 5732 5731 5729 5728 5727 5726 5726 5727 5727 5726 5725 5725 5724 5724 5724 5724 5724 5724 5724 5724
5811 5810 5809 5808 5807 5806 5805 5804 5802 5801 5800 5799 5798 5796 5795 5793 5792 5791 5790 5789 5788 5787 5786 5784 5783 5781 5780 5778 5776 5775 5773 5771 5769 5768 5766 5765 5763 5761 5759 5757 5755 5753 5751 5749 5747 5746 5744 5742 5741 5739 5737 5736 5735 5733 5732 5731 5730 5729 5728 5727 5726 5724 5724 5724 5723 5723 5724 5724 5722 5720 5719 5718 5718 5718 5717 5717 5717 5717 5716 5716 5715 5716 5715 5715 5715
5806 5805 5804 5803 5802 5801 5799 5798 5797 5796 5794 5793 5792 5790 5789 5787 5786 5785 5783 5782 5781 5780 5779 5777 5776 5774 5772 5771 5769 5767 5765 5764 5762 5760 5759 5757 5755 5754 5752 5750 5748 5746 5744 5742 5740 5738 5736 5734 5733 5731 5730 5728 5727 5725 5724 5723 5721 5720 5719 5718 5717 5716 5715 5714 5714 5714 5714 5715 5716 5714 5712 5711 5710 5710 5708 5708 5708 5708 5708 5707 5707 5707 5707 5707 5707
5802 5801 5800 5798 5797 5795 5794 5793 5791 5790 5789 5787 5786 5784 5783 5781 5780 5778 5777 5775 5774 5772 5771 5769 5768 5766 5764 5762 5761 5759 5757 5756 5754 5752 5751 5749 5747 5746 5744 5742 5740 5738 5736 5734 5732 5730 5728 5726 5724 5722 5721 5719 5718 5717 5715 5714 5712 5711 5710 5708 5707 5706 5705 5704 5703 5703 5703 5704 5706 5706 5706 5705 5703 5702 5700 5699 5699 5699 5699 5698 5698 5698 5698 5698 5698
5798 5796 5795 5793 5792 5790 5789 5788 5786 5785 5783 5782 5781 5779 5778 5776 5774 5772 5770 5768 5767 5765 5764 5762 5760 5758 5756 5754 5752 5751 5749 5747 5746 5744 5742 5741 5739 5737 5736 5734 5732 5730 5728 5726 5723 5721 5719 5717 5715 5713 5711 5710 5708 5707 5706 5705 5703 5702 5701 5699 5698 5696 5695 5694 5693 5692 5691 5691 5693 5695 5695 5696 5696 5695 5693 5690 5690 5690 5690 5689 5688 5688 5688 5688 5688
5792 5791 5789 5787 5786 5785 5784 5782 5781 5779 5778 5776 5775 5774 5772 5770 5767 5765 5763 5761 5760 5758 5756 5754 5753 5751 5749 5747 5745 5743 5741 5739 5737 5735 5734 5732 5730 5729 5727 5725 5722 5720 5718 5716 5714 5712 5710 5708 5706 5704 5702 5700 5698 5697 5695 5694 5693 5692 5691 5690 5688 5687 5685 5684 5682 5681 5680 5680 5680 5681 5682 5683 5685 5687 5685 5682 5681 5680 5679 5679 5678 5678 5678 5678 5678